User: anonymous   Login
Location: Fort Wayne
(41.1310°N, 85.1290°W)
Time: 00:25:17
(UTC-04:00)
Language:

Oscar 19 - Orbit

View from above orbital plane
View from above orbital plane
View from above satellite
View from above satellite

Ground track
Ground track

The orbit data is extracted from the following two-line orbital elements,

1 20442U 90005G   15090.82417578  .00000277  00000-0  11758-3 0  9994
2 20442 098.5067 027.9679 0012297 022.8556 337.3173 14.32707701315860
Epoch (UTC): 31 March 2015 19:46:48
Eccentricity: 0.0012297
inclination: 98.5067°
perigee height: 774 km
apogee height: 791 km
right ascension of ascending node: 27.9679°
argument of perigee: 22.8556°
revolutions per day: 14.32707701
mean anomaly at epoch: 337.3173°
orbit number at epoch: 31586

The dashed part of the orbit path shows where the satellite is in the earth's shadow,  

DLR